Northport, AL

12:52 AM CDT on September 27, 2016 (GMT -0500)
Tuscaloosa Municipal

Weather History for KTCL - January, 2014

Change the Weather History Date:

Tuesday, January 28, 2014

  Actual Average Record
Temperature  
Mean Temperature 25 °F 45 °F  
Max Temperature 29 °F 56 °F 79 °F (1975)
Min Temperature 20 °F 34 °F 14 °F (1963)
Degree Days  
Heating Degree Days 40 20  
Month to date heating degree days 728 574  
Since 1 July heating degree days 1732 1575  
Moisture  
Dew Point 9 °F    
Average Humidity 52    
Maximum Humidity 77    
Minimum Humidity 27    
Precipitation  
Precipitation T in 0.20 in 0.86 in (1974)
Month to date precipitation 2.09 4.75  
Year to date precipitation 2.09 4.75  
Sea Level Pressure  
Sea Level Pressure 30.33 in    
Wind  
Wind Speed 12 mph (North)    
Max Wind Speed 20 mph    
Max Gust Speed 25 mph    
Visibility 6 miles    
Events Snow    
T = Trace of Precipitation, MM = Missing Value Source: NWS Daily Summary

Daily Weather History Graph

Daily Weather History Graph

Search for Another Location

Airport or City:

Trip Planner

Search our weather history database for the weather conditions in past years. The results will help you decide how hot, cold, wet, or windy it might be!

Date:

Astronomy

Jan. 28, 2014 Rise Set
Actual Time 6:48 AM CST 5:18 PM CST
Civil Twilight 6:22 AM CST 5:44 PM CST
Nautical Twilight 5:52 AM CST 6:14 PM CST
Astronomical Twilight 5:23 AM CST 6:43 PM CST
Moon 4:27 AM CST (1/28) 3:09 PM CST (1/28)
Length of Visible Light 11h 22m
Length of Day
10h 29m
Waning Crescent, 7% of the Moon is Illuminated
Jan 28
Waning Crescent
Jan 30
New
Feb 6
First Quarter
Feb 14
Full
Feb 22
Last Quarter

Hourly Weather History & Observations

Time (CST) Temp. Windchill Dew Point Humidity Pressure Visibility Wind Dir Wind Speed Gust Speed Precip Events Conditions
12:53 AM 28.0 °F 19.3 °F -2.0 °F 27% 30.25 in 10.0 mi North 9.2 mph - N/A   Clear
1:53 AM 27.0 °F 14.3 °F -2.0 °F 29% 30.25 in 10.0 mi North 17.3 mph 21.9 mph N/A   Clear
2:53 AM 27.0 °F 15.2 °F -2.0 °F 29% 30.26 in 10.0 mi North 15.0 mph - N/A   Overcast
3:53 AM 27.0 °F 14.7 °F -2.0 °F 29% 30.25 in 10.0 mi North 16.1 mph - N/A   Mostly Cloudy
4:53 AM 26.1 °F 14.0 °F -0.0 °F 32% 30.25 in 10.0 mi North 15.0 mph 20.7 mph N/A   Overcast
5:53 AM 26.1 °F 15.0 °F -0.0 °F 32% 30.29 in 10.0 mi North 12.7 mph - N/A   Overcast
6:53 AM 25.0 °F 13.1 °F -0.9 °F 33% 30.30 in 10.0 mi North 13.8 mph - N/A   Overcast
7:53 AM 25.0 °F 14.2 °F -0.0 °F 34% 30.32 in 10.0 mi NNE 11.5 mph - N/A   Overcast
8:53 AM 24.1 °F 12.5 °F 6.1 °F 46% 30.33 in 9.0 mi North 12.7 mph - N/A   Overcast
9:21 AM 21.2 °F 8.9 °F 12.2 °F 68% 30.34 in 1.8 mi NNE 12.7 mph - 0.00 in Snow Light Snow
9:29 AM 21.2 °F 9.5 °F 12.2 °F 68% 30.34 in 1.0 mi NNE 11.5 mph - 0.00 in Snow Light Snow
9:36 AM 21.2 °F 9.5 °F 14.0 °F 74% 30.35 in 0.8 mi NNE 11.5 mph - 0.00 in Snow Light Snow
9:53 AM 21.0 °F 10.6 °F 16.0 °F 81% 30.37 in 0.8 mi North 9.2 mph - 0.00 in Snow Light Snow
10:23 AM 21.2 °F 12.6 °F 15.8 °F 80% 30.36 in 0.8 mi North 6.9 mph - 0.00 in Snow Light Snow
10:36 AM 21.2 °F 9.5 °F 15.8 °F 80% 30.36 in 1.0 mi North 11.5 mph - 0.00 in Snow Light Snow
10:48 AM 21.2 °F 9.5 °F 15.8 °F 80% 30.36 in 0.8 mi North 11.5 mph - 0.00 in Snow Light Snow
10:53 AM 21.0 °F 8.1 °F 15.1 °F 78% 30.37 in 0.8 mi North 13.8 mph - 0.00 in Snow Light Snow
11:01 AM 21.2 °F 9.5 °F 15.8 °F 80% 30.36 in 2.0 mi North 11.5 mph - 0.00 in Snow Light Snow
11:06 AM 21.2 °F 8.9 °F 14.0 °F 74% 30.35 in 4.0 mi North 12.7 mph - 0.00 in Snow Light Snow
11:42 AM 21.2 °F 10.1 °F 15.8 °F 80% 30.35 in 2.5 mi North 10.4 mph - 0.00 in Snow Light Snow
11:53 AM 21.9 °F 9.8 °F 15.1 °F 75% 30.35 in 1.8 mi North 12.7 mph - 0.00 in Snow Light Snow
12:15 PM 21.2 °F 9.5 °F 15.8 °F 80% 30.34 in 1.5 mi North 11.5 mph - 0.00 in Snow Light Snow
12:50 PM 21.2 °F 11.7 °F 15.8 °F 80% 30.33 in 0.8 mi NNW 8.1 mph - 0.00 in Snow Light Snow
12:53 PM 21.0 °F 9.9 °F 16.0 °F 81% 30.33 in 0.8 mi NNW 10.4 mph - 0.00 in Snow Light Snow
1:13 PM 21.2 °F 10.1 °F 15.8 °F 80% 30.32 in 1.2 mi North 10.4 mph - 0.00 in Snow Light Snow
1:48 PM 23.0 °F 10.6 °F 15.8 °F 74% 30.30 in 2.5 mi North 13.8 mph 19.6 mph 0.00 in Snow Light Snow
1:53 PM 23.0 °F 10.6 °F 15.1 °F 72% 30.31 in 6.0 mi North 13.8 mph 19.6 mph 0.00 in Snow Light Snow
2:22 PM 24.8 °F 12.4 °F 14.0 °F 64% 30.29 in 10.0 mi North 15.0 mph - 0.00 in   Overcast
2:29 PM 23.0 °F 10.6 °F 12.2 °F 63% 30.29 in 10.0 mi North 13.8 mph - 0.00 in   Overcast
2:37 PM 23.0 °F 11.1 °F 14.0 °F 68% 30.29 in 10.0 mi North 12.7 mph 21.9 mph 0.00 in   Overcast
2:53 PM 23.0 °F 10.6 °F 12.9 °F 65% 30.30 in 10.0 mi North 13.8 mph - 0.00 in   Overcast
3:53 PM 24.1 °F 12.5 °F 10.9 °F 57% 30.30 in 10.0 mi NNW 12.7 mph - N/A   Overcast
4:53 PM 23.0 °F 10.1 °F 10.9 °F 60% 30.32 in 10.0 mi North 15.0 mph 19.6 mph N/A   Overcast
5:53 PM 23.0 °F 11.1 °F 9.0 °F 55% 30.32 in 10.0 mi North 12.7 mph 20.7 mph N/A   Overcast
6:53 PM 23.0 °F 12.4 °F 8.1 °F 53% 30.35 in 10.0 mi North 10.4 mph - N/A   Overcast
7:53 PM 21.9 °F 12.5 °F 6.1 °F 51% 30.37 in 10.0 mi North 8.1 mph - N/A   Overcast
8:53 PM 21.9 °F 13.4 °F 3.9 °F 46% 30.39 in 10.0 mi NNW 6.9 mph - N/A   Clear
9:53 PM 21.9 °F 11.7 °F 3.0 °F 44% 30.40 in 10.0 mi North 9.2 mph - N/A   Clear
10:53 PM 21.0 °F 9.3 °F 1.0 °F 42% 30.42 in 10.0 mi North 11.5 mph 18.4 mph N/A   Clear
11:53 PM 19.9 °F 10.1 °F 1.0 °F 44% 30.41 in 10.0 mi North 8.1 mph - N/A   Clear